TimeCDT,TemperatureF,Dew PointF,Humidity,Sea Level PressureIn,VisibilityMPH,Wind Direction,Wind SpeedMPH,Gust SpeedMPH,PrecipitationIn,Events,Conditions,WindDirDegrees,DateUTC
12:09 AM,46.6,41.2,81,29.75,10.0,Calm,Calm,-,N/A,,Overcast,0,2012-10-09 05:09:00
12:29 AM,46.6,40.1,78,29.74,10.0,Calm,Calm,-,N/A,,Overcast,0,2012-10-09 05:29:00
12:49 AM,46.6,40.1,78,29.74,10.0,Calm,Calm,-,N/A,,Mostly Cloudy,0,2012-10-09 05:49:00
1:09 AM,47.7,41.0,78,29.74,10.0,Calm,Calm,-,N/A,,Mostly Cloudy,0,2012-10-09 06:09:00
1:28 AM,47.8,40.6,76,29.74,10.0,Calm,Calm,-,N/A,,Mostly Cloudy,0,2012-10-09 06:28:00
1:49 AM,49.1,41.0,74,29.74,10.0,SW,3.5,-,N/A,,Overcast,230,2012-10-09 06:49:00
2:08 AM,49.1,40.5,72,29.74,10.0,SW,3.5,-,N/A,,Overcast,230,2012-10-09 07:08:00
3:09 AM,49.1,40.6,73,29.73,10.0,WSW,4.6,-,N/A,,Overcast,250,2012-10-09 08:09:00
3:29 AM,49.1,40.5,72,29.73,10.0,WSW,5.8,-,N/A,,Mostly Cloudy,250,2012-10-09 08:29:00
3:48 AM,46.6,38.3,73,29.73,10.0,WSW,4.6,-,N/A,,Scattered Clouds,250,2012-10-09 08:48:00
4:09 AM,46.6,38.5,73,29.73,10.0,WSW,4.6,-,N/A,,Clear,250,2012-10-09 09:09:00
4:29 AM,46.6,38.5,73,29.73,10.0,WSW,5.8,-,N/A,,Scattered Clouds,250,2012-10-09 09:29:00
4:49 AM,46.6,38.7,74,29.74,10.0,West,5.8,-,N/A,,Mostly Cloudy,270,2012-10-09 09:49:00
5:09 AM,46.6,38.3,73,29.74,10.0,West,5.8,-,N/A,,Overcast,270,2012-10-09 10:09:00
5:28 AM,46.6,38.7,74,29.75,10.0,West,6.9,-,N/A,,Overcast,270,2012-10-09 10:28:00
5:49 AM,46.6,37.9,72,29.76,10.0,West,8.1,-,N/A,,Overcast,280,2012-10-09 10:49:00
6:09 AM,46.6,37.9,72,29.76,10.0,West,9.2,-,N/A,,Overcast,270,2012-10-09 11:09:00
6:17 AM,46.6,37.8,71,29.77,10.0,West,9.2,-,N/A,,Overcast,260,2012-10-09 11:17:00
6:50 AM,44.6,37.4,76,29.79,10.0,WNW,9.2,-,N/A,,Overcast,290,2012-10-09 11:50:00
7:10 AM,42.8,37.4,81,29.78,10.0,WNW,6.9,-,N/A,,Overcast,290,2012-10-09 12:10:00
7:30 AM,41.0,39.2,93,29.79,10.0,WSW,3.5,-,N/A,,Overcast,250,2012-10-09 12:30:00
7:50 AM,42.8,39.2,87,29.79,10.0,WSW,4.6,-,N/A,,Overcast,250,2012-10-09 12:50:00
8:10 AM,42.8,39.2,87,29.79,10.0,WSW,4.6,-,N/A,,Overcast,250,2012-10-09 13:10:00
8:11 AM,-9999,-9999,N/A,29.79,10.0,WSW,4.6,-,N/A,,Overcast,250,2012-10-09 13:11:00
8:28 AM,42.1,39.2,90,29.79,10.0,WSW,5.8,-,N/A,,Mostly Cloudy,250,2012-10-09 13:28:00
8:49 AM,43.0,36.9,79,29.80,10.0,West,12.7,19.6,N/A,,Mostly Cloudy,270,2012-10-09 13:49:00
9:09 AM,43.0,36.7,78,29.79,10.0,WSW,8.1,-,N/A,,Mostly Cloudy,250,2012-10-09 14:09:00
9:29 AM,44.1,37.4,77,29.79,10.0,WSW,8.1,-,N/A,,Scattered Clouds,250,2012-10-09 14:29:00
9:49 AM,46.6,37.8,71,29.79,10.0,West,13.8,-,N/A,,Clear,260,2012-10-09 14:49:00
10:09 AM,46.6,36.3,67,29.80,10.0,West,12.7,24.2,N/A,,Clear,270,2012-10-09 15:09:00
10:29 AM,49.1,34.9,58,29.79,10.0,West,15.0,25.3,N/A,,Clear,280,2012-10-09 15:29:00
10:49 AM,49.1,32.9,54,29.79,10.0,WNW,20.7,27.6,N/A,,Scattered Clouds,290,2012-10-09 15:49:00
11:08 AM,49.3,32.2,52,29.79,10.0,West,23.0,28.8,N/A,,Scattered Clouds,280,2012-10-09 16:08:00
11:49 AM,49.6,30.4,48,29.80,10.0,West,24.2,35.7,N/A,,Mostly Cloudy,270,2012-10-09 16:49:00
12:08 PM,49.5,29.8,47,29.80,10.0,West,25.3,36.8,N/A,,Mostly Cloudy,270,2012-10-09 17:08:00
12:29 PM,49.1,31.1,50,29.81,10.0,West,17.3,29.9,N/A,,Overcast,280,2012-10-09 17:29:00
12:49 PM,47.1,30.7,53,29.81,10.0,WNW,18.4,23.0,N/A,,Overcast,290,2012-10-09 17:49:00
1:08 PM,49.1,30.7,49,29.81,10.0,West,21.9,29.9,N/A,,Overcast,280,2012-10-09 18:08:00
1:28 PM,46.6,31.3,55,29.82,10.0,West,21.9,29.9,N/A,,Overcast,280,2012-10-09 18:28:00
1:49 PM,49.1,33.1,54,29.82,10.0,West,24.2,28.8,N/A,,Overcast,280,2012-10-09 18:49:00
2:03 PM,49.1,32.2,52,29.81,10.0,West,23.0,29.9,N/A,,Overcast,270,2012-10-09 19:03:00
2:30 PM,48.2,33.8,58,29.82,10.0,West,24.2,29.9,N/A,,Overcast,280,2012-10-09 19:30:00
2:50 PM,48.2,33.8,58,29.83,10.0,WNW,19.6,28.8,N/A,,Overcast,290,2012-10-09 19:50:00
3:10 PM,48.2,35.6,62,29.83,10.0,WNW,23.0,29.9,N/A,,Overcast,300,2012-10-09 20:10:00
3:30 PM,46.4,32.0,57,29.85,10.0,WNW,21.9,34.5,N/A,,Overcast,300,2012-10-09 20:30:00
3:46 PM,46.9,33.1,59,29.86,10.0,WNW,21.9,29.9,N/A,,Overcast,300,2012-10-09 20:46:00
3:49 PM,-9999,-9999,N/A,29.85,10.0,WNW,23.0,31.1,N/A,,Overcast,290,2012-10-09 20:49:00
4:09 PM,46.6,32.4,58,29.87,10.0,WNW,24.2,31.1,N/A,,Overcast,300,2012-10-09 21:09:00
4:29 PM,46.6,32.9,59,29.88,10.0,WNW,19.6,28.8,N/A,,Overcast,300,2012-10-09 21:29:00
4:49 PM,44.1,31.3,61,29.88,10.0,WNW,21.9,34.5,N/A,,Overcast,290,2012-10-09 21:49:00
5:09 PM,43.3,30.2,60,29.90,10.0,WNW,20.7,29.9,N/A,,Overcast,300,2012-10-09 22:09:00
5:29 PM,43.0,29.7,59,29.90,10.0,WNW,21.9,28.8,N/A,,Overcast,300,2012-10-09 22:29:00
5:49 PM,42.8,28.6,57,29.91,10.0,WNW,23.0,31.1,N/A,,Overcast,290,2012-10-09 22:49:00
6:08 PM,42.8,29.3,59,29.92,10.0,WNW,20.7,29.9,N/A,,Overcast,300,2012-10-09 23:08:00
6:29 PM,42.8,30.0,61,29.93,10.0,WNW,20.7,26.5,N/A,,Overcast,300,2012-10-09 23:29:00
6:49 PM,42.1,29.3,61,29.94,10.0,WNW,19.6,29.9,N/A,,Overcast,290,2012-10-09 23:49:00
7:09 PM,41.5,28.4,60,29.95,10.0,West,18.4,28.8,N/A,,Overcast,280,2012-10-10 00:09:00
7:28 PM,41.5,28.0,59,29.96,10.0,WNW,16.1,25.3,N/A,,Overcast,290,2012-10-10 00:28:00
7:48 PM,41.5,28.2,59,29.96,10.0,WNW,18.4,23.0,N/A,,Overcast,290,2012-10-10 00:48:00
8:09 PM,41.5,28.2,59,29.97,10.0,WNW,13.8,21.9,N/A,,Overcast,290,2012-10-10 01:09:00
8:29 PM,39.4,26.4,60,29.98,10.0,West,11.5,-,N/A,,Scattered Clouds,280,2012-10-10 01:29:00
8:49 PM,39.2,27.0,62,29.98,10.0,West,10.4,-,N/A,,Clear,280,2012-10-10 01:49:00
9:08 PM,38.7,27.1,63,29.98,10.0,West,9.2,-,N/A,,Clear,280,2012-10-10 02:08:00
9:28 PM,36.5,26.4,67,29.99,10.0,West,10.4,-,N/A,,Clear,270,2012-10-10 02:28:00
9:49 PM,36.1,26.4,68,29.99,10.0,West,9.2,-,N/A,,Clear,270,2012-10-10 02:49:00
10:08 PM,36.5,27.0,68,30.00,10.0,West,10.4,-,N/A,,Clear,280,2012-10-10 03:08:00
10:29 PM,34.3,25.5,70,30.01,10.0,West,9.2,-,N/A,,Clear,280,2012-10-10 03:29:00
10:49 PM,34.0,25.9,72,30.01,10.0,West,8.1,-,N/A,,Clear,270,2012-10-10 03:49:00
11:09 PM,32.7,25.5,75,30.01,10.0,West,8.1,-,N/A,,Clear,270,2012-10-10 04:09:00
11:29 PM,29.3,23.0,77,30.01,10.0,West,5.8,-,N/A,,Clear,270,2012-10-10 04:29:00
11:48 PM,30.2,24.3,79,30.01,10.0,West,5.8,-,N/A,,Clear,270,2012-10-10 04:48:00